FW4751 Weather Reports


time (UTC)temp
C
wind
direction
speed
KPH
gust
KPH
rain 1hr
cm
rain 24hr
cm
rain mn
cm
humidity
%
barometer
mb
20260902063504 15 0.0 1.6 0.00 0.00 0.00 78 1017.1
20260902063008 15 0.0 1.6 0.00 0.00 0.00 78 1017.0
20260902062504 15 0.0 1.6 0.00 0.00 0.00 78 1017.0
20260902062004 15 0.0 1.6 0.00 0.00 0.00 78 1017.0
20260902061523 15 0.0 1.6 0.00 0.00 0.00 78 1016.9
20260902061006 15 0.0 1.6 0.00 0.00 0.00 77 1016.9
20260902060503 15 0.0 1.6 0.00 0.00 0.00 77 1016.9
20260902060003 15 0.0 1.6 0.00 0.00 0.00 76 1016.7
20260902055503 16 0.0 1.6 0.00 0.00 0.00 76 1016.8
20260902055003 16 0.0 1.6 0.00 0.00 0.00 76 1016.8
20260902054504 16 0.0 1.6 0.00 0.00 0.00 76 1016.9
20260902054008 16 0.0 1.6 0.00 0.00 0.00 76 1016.9
20260902053503 16 0.0 1.6 0.00 0.00 0.00 75 1017.0
20260902053008 16 0.0 1.6 0.00 0.00 0.00 75 1017.1
20260902052503 16 0.0 1.6 0.00 0.00 0.00 75 1017.2
20260902052008 16 0.0 0.0 0.00 0.00 0.00 75 1017.3
20260902051503 16 0.0 1.6 0.00 0.00 0.00 75 1017.3
20260902051028 16 0.0 1.6 0.00 0.00 0.00 75 1017.5
20260902050528 16 0.0 3.2 0.00 0.00 0.00 74 1017.4
20260902050009 16 0.0 3.2 0.00 0.00 0.00 74 1017.4
20260902045509 16 0.0 1.6 0.00 0.00 0.00 74 1017.3
20260902045008 17 0.0 1.6 0.00 0.00 0.00 73 1017.2
20260902044503 17 0.0 1.6 0.00 0.00 0.00 74 1017.2
20260902044008 17 315 1.6 3.2 0.00 0.00 0.00 74 1017.3
20260902043504 17 0.0 3.2 0.00 0.00 0.00 73 1017.1
20260902043004 17 0.0 1.6 0.00 0.00 0.00 73 1017.2
20260902042508 17 315 1.6 6.4 0.00 0.00 0.00 73 1017.2
20260902042008 17 315 1.6 3.2 0.00 0.00 0.00 73 1017.2
20260902041508 17 315 1.6 4.8 0.00 0.00 0.00 73 1017.1
20260902041024 17 315 1.6 6.4 0.00 0.00 0.00 73 1017.0
20260902040503 17 315 1.6 11.3 0.00 0.00 0.00 73 1016.8
20260902040008 17 315 1.6 4.8 0.00 0.00 0.00 73 1016.9
20260902035508 17 248 1.6 6.4 0.00 0.00 0.00 72 1016.8
20260902035008 17 270 1.6 4.8 0.00 0.00 0.00 72 1016.7
20260902034503 17 293 1.6 4.8 0.00 0.00 0.00 72 1016.7
20260902034003 17 248 3.2 8.0 0.00 0.00 0.00 72 1016.7
20260902033508 17 315 1.6 4.8 0.00 0.00 0.00 72 1016.7
20260902033003 17 248 3.2 9.7 0.00 0.00 0.00 71 1016.6
20260902032503 17 315 3.2 8.0 0.00 0.00 0.00 71 1016.4
20260902032008 17 248 3.2 9.7 0.00 0.00 0.00 70 1016.5
20260902031508 17 248 1.6 6.4 0.00 0.00 0.00 70 1016.4
20260902031003 18 315 1.6 6.4 0.00 0.00 0.00 69 1016.4
20260902030508 18 248 3.2 9.7 0.00 0.00 0.00 69 1016.4
20260902030026 18 248 1.6 11.3 0.00 0.00 0.00 68 1016.3
20260902025508 18 270 3.2 6.4 0.00 0.00 0.00 68 1016.4
20260902025003 18 315 1.6 8.0 0.00 0.00 0.00 67 1016.3
20260902024523 18 270 1.6 9.7 0.00 0.00 0.00 66 1016.3
20260902024008 18 315 3.2 9.7 0.00 0.00 0.00 66 1016.3
20260902023508 18 248 3.2 8.0 0.00 0.00 0.00 65 1016.2
20260902023008 18 293 1.6 6.4 0.00 0.00 0.00 64 1016.1
20260902022508 19 248 3.2 9.7 0.00 0.00 0.00 63 1016.1
20260902022003 19 248 3.2 11.3 0.00 0.00 0.00 62 1016.1
20260902021508 19 293 3.2 9.7 0.00 0.00 0.00 61 1016.1
20260902021003 20 315 4.8 12.9 0.00 0.00 0.00 60 1016.1
20260902020508 20 225 3.2 8.0 0.00 0.00 0.00 59 1016.1
20260902020008 20 248 3.2 11.3 0.00 0.00 0.00 59 1016.0
20260902015523 20 270 3.2 8.0 0.00 0.00 0.00 58 1016.0
20260902015003 20 248 3.2 8.0 0.00 0.00 0.00 57 1016.0
20260902014528 21 315 3.2 12.9 0.00 0.00 0.00 56 1016.0
20260902014010 21 293 3.2 8.0 0.00 0.00 0.00 54 1016.0
20260902013525 21 225 1.6 6.4 0.00 0.00 0.00 54 1015.9
20260902013003 21 315 3.2 17.7 0.00 0.00 0.00 53 1016.1
20260902012530 21 293 3.2 9.7 0.00 0.00 0.00 53 1016.0
20260902012010 21 248 4.8 12.9 0.00 0.00 0.00 52 1015.9
20260902011510 22 315 3.2 9.7 0.00 0.00 0.00 52 1015.9
20260902011005 22 293 1.6 4.8 0.00 0.00 0.00 52 1015.8
20260902010510 22 315 1.6 8.0 0.00 0.00 0.00 52 1015.9
20260902010010 22 315 3.2 11.3 0.00 0.00 0.00 51 1015.8
20260902005509 22 315 3.2 8.0 0.00 0.00 0.00 52 1015.8
20260902005005 22 248 3.2 11.3 0.00 0.00 0.00 52 1016.0
20260902004509 22 315 3.2 9.7 0.00 0.00 0.00 51 1015.8
20260902004030 22 248 4.8 11.3 0.00 0.00 0.00 51 1015.9
20260902003510 22 248 3.2 11.3 0.00 0.00 0.00 51 1015.8
20260902003009 22 248 3.2 8.0 0.00 0.00 0.00 51 1015.8
20260902002525 22 315 3.2 11.3 0.00 0.00 0.00 50 1015.9
20260902002010 22 315 3.2 11.3 0.00 0.00 0.00 50 1015.8
20260902001510 23 315 3.2 11.3 0.00 0.00 0.00 49 1015.7
20260902001009 23 315 3.2 8.0 0.00 0.00 0.00 49 1015.8
20260902000509 23 338 3.2 11.3 0.00 0.00 0.00 49 1015.9
20260902000030 23 315 3.2 8.0 0.00 0.00 0.00 49 1015.8
20260901235505 22 293 3.2 9.7 0.00 0.00 0.00 49 1015.9
20260901235004 23 315 4.8 9.7 0.00 0.00 0.00 48 1015.8
20260901234510 23 315 4.8 14.5 0.00 0.00 0.00 47 1015.8
20260901234004 23 315 3.2 12.9 0.00 0.00 0.00 47 1015.9
20260901233509 23 315 4.8 11.3 0.00 0.00 0.00 46 1015.9
20260901233009 23 315 3.2 8.0 0.00 0.00 0.00 45 1015.8
20260901232510 23 315 3.2 8.0 0.00 0.00 0.00 46 1015.7
20260901232007 23 315 3.2 12.9 0.00 0.00 0.00 45 1015.7
20260901231529 23 315 3.2 9.7 0.00 0.00 0.00 46 1015.8
20260901231005 23 0 4.8 12.9 0.00 0.00 0.00 46 1015.8
20260901230504 24 315 3.2 11.3 0.00 0.00 0.00 45 1015.8
20260901230029 24 315 3.2 8.0 0.00 0.00 0.00 45 1015.7
20260901225509 24 315 3.2 6.4 0.00 0.00 0.00 45 1015.7
20260901225010 23 315 3.2 8.0 0.00 0.00 0.00 45 1015.7
20260901224509 23 315 3.2 11.3 0.00 0.00 0.00 46 1015.6
20260901224004 23 315 4.8 11.3 0.00 0.00 0.00 46 1015.6
20260901223509 23 315 3.2 8.0 0.00 0.00 0.00 47 1015.6
20260901223005 23 315 3.2 9.7 0.00 0.00 0.00 48 1015.5
20260901222505 22 338 3.2 11.3 0.00 0.00 0.00 51 1015.7
20260901222004 21 45 3.2 9.7 0.00 0.00 0.00 54 1015.6
20260901221509 21 45 4.8 12.9 0.00 0.00 0.00 56 1015.7
20260901221024 21 45 4.8 11.3 0.00 0.00 0.00 57 1015.7
20260901220504 21 45 4.8 9.7 0.00 0.00 0.00 57 1015.9
20260901220009 21 45 4.8 11.3 0.00 0.00 0.00 56 1015.9
20260901215510 21 23 6.4 12.9 0.00 0.00 0.00 56 1016.0
20260901215029 21 23 4.8 9.7 0.00 0.00 0.00 56 1015.9
20260901214510 21 45 4.8 11.3 0.00 0.00 0.00 56 1016.0
20260901214025 21 23 4.8 11.3 0.00 0.00 0.00 55 1016.0
20260901213524 21 23 4.8 12.9 0.00 0.00 0.00 55 1016.0
20260901213004 21 45 4.8 9.7 0.00 0.00 0.00 55 1016.0
20260901212509 21 45 3.2 9.7 0.00 0.00 0.00 54 1016.1
20260901212004 21 45 3.2 9.7 0.00 0.00 0.00 54 1016.2
20260901211504 21 23 3.2 8.0 0.00 0.00 0.00 53 1016.2
20260901211029 22 45 3.2 9.7 0.00 0.00 0.00 54 1016.3
20260901210544 22 45 3.2 9.7 0.00 0.00 0.00 53 1016.3
20260901210009 22 45 3.2 6.4 0.00 0.00 0.00 53 1016.0
20260901205505 22 45 3.2 8.0 0.00 0.00 0.00 52 1016.2
20260901205004 23 45 3.2 11.3 0.00 0.00 0.00 52 1016.1
20260901204509 23 45 3.2 8.0 0.00 0.00 0.00 52 1016.1
20260901204029 22 113 3.2 8.0 0.00 0.00 0.00 54 1016.1
20260901203504 22 45 1.6 6.4 0.00 0.00 0.00 56 1016.2
20260901203004 21 45 3.2 8.0 0.00 0.00 0.00 56 1016.4
20260901202544 21 45 1.6 6.4 0.00 0.00 0.00 58 1016.6
20260901202007 21 45 3.2 8.0 0.00 0.00 0.00 57 1016.7
20260901201524 21 45 3.2 4.8 0.00 0.00 0.00 57 1016.7
20260901201004 21 45 3.2 8.0 0.00 0.00 0.00 57 1016.8
20260901200504 21 45 3.2 8.0 0.00 0.00 0.00 57 1016.9
20260901200004 21 0 1.6 6.4 0.00 0.00 0.00 57 1016.9
20260901195504 21 45 3.2 8.0 0.00 0.00 0.00 57 1016.9
20260901195004 21 23 3.2 8.0 0.00 0.00 0.00 57 1016.9
20260901194509 21 45 3.2 8.0 0.00 0.00 0.00 56 1016.8
20260901194004 21 45 3.2 8.0 0.00 0.00 0.00 55 1016.9
20260901193504 21 0 3.2 9.7 0.00 0.00 0.00 54 1017.0
20260901193004 22 293 1.6 3.2 0.00 0.00 0.00 53 1017.0
20260901192504 21 158 3.2 6.4 0.00 0.00 0.00 53 1016.9
20260901192004 21 225 1.6 4.8 0.00 0.00 0.00 55 1016.9
20260901191504 21 225 1.6 4.8 0.00 0.00 0.00 55 1016.9
20260901191004 21 135 1.6 3.2 0.00 0.00 0.00 56 1017.1
20260901190504 20 135 1.6 4.8 0.00 0.00 0.00 56 1017.2
20260901190004 20 45 1.6 3.2 0.00 0.00 0.00 57 1017.2
20260901185524 20 0.0 3.2 0.00 0.00 0.00 57 1017.2
20260901185004 20 0.0 1.6 0.00 0.00 0.00 58 1017.3
20260901184504 20 0.0 3.2 0.00 0.00 0.00 58 1017.4
20260901184004 20 0.0 1.6 0.00 0.00 0.00 58 1017.3
20260901183504 20 270 1.6 3.2 0.00 0.00 0.00 58 1017.3
20260901183004 20 23 1.6 3.2 0.00 0.00 0.00 59 1017.3
20260901182504 20 0.0 3.2 0.00 0.00 0.00 59 1017.3
20260901182004 20 23 1.6 3.2 0.00 0.00 0.00 58 1017.3
20260901181504 20 23 1.6 4.8 0.00 0.00 0.00 58 1017.3
20260901181004 20 45 1.6 4.8 0.00 0.00 0.00 58 1017.3
20260901180504 20 135 1.6 3.2 0.00 0.00 0.00 59 1017.3
20260901180009 20 270 1.6 3.2 0.00 0.00 0.00 59 1017.3
20260901175504 20 270 1.6 4.8 0.00 0.00 0.00 60 1017.3
20260901175007 20 315 1.6 4.8 0.00 0.00 0.00 59 1017.3
20260901174524 20 0.0 3.2 0.00 0.00 0.00 59 1017.2
20260901174006 20 315 1.6 3.2 0.00 0.00 0.00 59 1017.2
20260901173504 20 0.0 3.2 0.00 0.00 0.00 58 1017.1
20260901173004 20 225 1.6 3.2 0.00 0.00 0.00 58 1017.1
20260901172504 20 225 1.6 3.2 0.00 0.00 0.00 58 1017.0
20260901172029 20 248 1.6 3.2 0.00 0.00 0.00 58 1016.9
20260901171504 20 225 1.6 4.8 0.00 0.00 0.00 58 1016.9
20260901171004 20 315 1.6 4.8 0.00 0.00 0.00 58 1016.9
20260901170504 20 315 1.6 4.8 0.00 0.00 0.00 58 1016.8
20260901170004 20 293 1.6 3.2 0.00 0.00 0.00 58 1016.8
20260901165509 19 0.0 1.6 0.00 0.00 0.00 58 1016.8
20260901165004 19 315 1.6 3.2 0.00 0.00 0.00 59 1016.8
20260901164504 19 315 1.6 3.2 0.00 0.00 0.00 59 1016.9
20260901164009 19 45 1.6 3.2 0.00 0.00 0.00 60 1016.7
20260901163503 18 225 1.6 3.2 0.00 0.00 0.00 61 1016.7
20260901163008 18 225 1.6 3.2 0.00 0.00 0.00 61 1016.7
20260901162508 18 315 1.6 3.2 0.00 0.00 0.00 61 1016.8
20260901162024 18 293 1.6 3.2 0.00 0.00 0.00 62 1016.7
20260901161504 18 0.0 1.6 0.00 0.00 0.00 62 1016.6
20260901161003 18 270 1.6 3.2 0.00 0.00 0.00 62 1016.7
20260901160504 18 315 1.6 3.2 0.00 0.00 0.00 62 1016.8
20260901160004 18 315 1.6 6.4 0.00 0.00 0.00 62 1016.8
20260901155524 18 270 1.6 3.2 0.00 0.00 0.00 63 1016.6
20260901155009 18 225 1.6 3.2 0.00 0.00 0.00 63 1016.6
20260901154524 18 270 1.6 4.8 0.00 0.00 0.00 63 1016.6
20260901154028 17 225 1.6 8.0 0.00 0.00 0.00 64 1016.4
20260901153504 17 315 1.6 3.2 0.00 0.00 0.00 64 1016.5
20260901153004 17 315 1.6 3.2 0.00 0.00 0.00 65 1016.4
20260901152508 17 225 1.6 3.2 0.00 0.00 0.00 66 1016.4
20260901152006 17 225 1.6 3.2 0.00 0.00 0.00 66 1016.2
20260901151508 17 0.0 1.6 0.00 0.00 0.00 67 1016.2
20260901151004 17 248 1.6 3.2 0.00 0.00 0.00 67 1016.3
20260901150509 17 225 1.6 3.2 0.00 0.00 0.00 67 1016.3
20260901150006 17 248 1.6 4.8 0.00 0.00 0.00 68 1016.2
20260901145503 16 225 1.6 3.2 0.00 0.00 0.00 68 1016.0
20260901145003 16 180 1.6 3.2 0.00 0.00 0.00 68 1016.0
20260901144504 16 248 1.6 3.2 0.00 0.00 0.00 69 1015.9
20260901144008 16 0.0 1.6 0.00 0.00 0.00 69 1016.0
20260901143508 16 0.0 4.8 0.00 0.00 0.00 69 1015.9
20260901143008 16 0.0 1.6 0.00 0.00 0.00 69 1015.8
20260901142503 16 248 1.6 3.2 0.00 0.00 0.00 69 1015.8
20260901142004 16 0.0 3.2 0.00 0.00 0.00 69 1015.7
20260901141503 16 0.0 1.6 0.00 0.00 0.00 69 1015.7
20260901141008 16 0.0 3.2 0.00 0.00 0.00 70 1015.5
20260901140508 16 248 1.6 3.2 0.00 0.00 0.00 70 1015.5
20260901140008 16 248 1.6 4.8 0.00 0.00 0.00 70 1015.3
20260901135508 16 248 1.6 4.8 0.00 0.00 0.00 70 1015.3
20260901135003 16 248 1.6 3.2 0.00 0.00 0.00 70 1015.3
20260901134529 16 248 1.6 4.8 0.00 0.00 0.00 70 1015.1
20260901134003 16 248 1.6 4.8 0.00 0.00 0.00 70 1015.2
20260901133523 16 270 1.6 3.2 0.00 0.00 0.00 71 1015.2
20260901133008 16 0.0 3.2 0.00 0.00 0.00 71 1015.1
20260901132503 16 0.0 1.6 0.00 0.00 0.00 71 1015.1
20260901132003 16 0.0 1.6 0.00 0.00 0.00 71 1014.9
20260901131528 16 0.0 1.6 0.00 0.00 0.00 71 1014.9
20260901131028 16 0.0 3.2 0.00 0.00 0.00 71 1014.9
20260901130508 16 0.0 3.2 0.00 0.00 0.00 71 1014.9
20260901130003 16 0.0 1.6 0.00 0.00 0.00 71 1014.8
20260901125523 16 0.0 3.2 0.00 0.00 0.00 72 1014.8
20260901125006 16 0.0 1.6 0.00 0.00 0.00 72 1014.7
20260901124504 16 0.0 3.2 0.00 0.00 0.00 72 1014.9
20260901124023 16 0.0 3.2 0.00 0.00 0.00 72 1014.9
20260901123503 16 0.0 1.6 0.00 0.00 0.00 72 1014.8
20260901123028 16 0.0 1.6 0.00 0.00 0.00 72 1014.7
20260901122523 16 0.0 1.6 0.00 0.00 0.00 72 1014.8
20260901122008 16 0.0 1.6 0.00 0.00 0.00 73 1014.9
20260901121508 16 0.0 1.6 0.00 0.00 0.00 73 1014.9
20260901121008 16 0.0 1.6 0.00 0.00 0.00 73 1014.8
20260901120508 16 0.0 1.6 0.00 0.00 0.00 73 1014.8
20260901120008 16 0.0 1.6 0.00 0.00 0.00 73 1014.8
20260901115548 16 0.0 1.6 0.00 0.00 0.00 73 1014.8
20260901115003 16 0.0 1.6 0.00 0.00 0.00 73 1014.8
20260901114508 15 0.0 3.2 0.00 0.00 0.00 73 1014.7
20260901114029 15 0.0 1.6 0.00 0.00 0.00 73 1014.8
20260901113508 15 0.0 3.2 0.00 0.00 0.00 73 1014.9
20260901113028 15 0.0 1.6 0.00 0.00 0.00 74 1014.9
20260901112508 15 0.0 3.2 0.00 0.00 0.00 74 1015.0
20260901112028 15 0.0 1.6 0.00 0.00 0.00 74 1015.1
20260901111503 15 0.0 3.2 0.00 0.00 0.00 74 1015.1
20260901111005 15 0.0 1.6 0.00 0.00 0.00 74 1015.1
20260901110530 15 0.0 1.6 0.00 0.00 0.00 75 1015.1
20260901110005 15 0.0 1.6 0.00 0.00 0.00 75 1015.2
20260901105510 15 0.0 3.2 0.00 0.00 0.00 76 1015.1
20260901105005 15 0.0 3.2 0.00 0.00 0.00 76 1015.1
20260901104510 15 248 1.6 4.8 0.00 0.00 0.00 77 1015.1
20260901104010 15 0.0 4.8 0.00 0.00 0.00 78 1015.1
20260901103510 15 0.0 3.2 0.00 0.00 0.00 79 1015.0
20260901103010 15 0.0 1.6 0.00 0.00 0.00 80 1014.9
20260901102510 15 0.0 1.6 0.00 0.00 0.00 80 1015.0
20260901102005 15 0.0 1.6 0.00 0.00 0.00 81 1015.0
20260901101510 14 0.0 3.2 0.00 0.00 0.00 81 1014.9
20260901101010 14 0.0 1.6 0.00 0.00 0.00 81 1014.9
20260901100510 14 0.0 1.6 0.00 0.00 0.00 82 1014.8
20260901100005 14 0.0 1.6 0.00 0.00 0.00 82 1014.8
20260901095510 14 0.0 1.6 0.00 0.00 0.00 82 1014.8
20260901095009 13 0.0 1.6 0.00 0.00 0.00 83 1014.8
20260901094505 13 0.0 1.6 0.00 0.00 0.00 83 1014.7
20260901094030 13 0.0 1.6 0.00 0.00 0.00 83 1014.7
20260901093510 13 0.0 1.6 0.00 0.00 0.00 83 1014.7
20260901093010 13 0.0 1.6 0.00 0.00 0.00 84 1014.8
20260901092510 13 0.0 1.6 0.00 0.00 0.00 84 1014.7
20260901092010 13 0.0 1.6 0.00 0.00 0.00 84 1014.8
20260901091505 13 0.0 1.6 0.00 0.00 0.00 84 1014.9
20260901091009 13 0.0 1.6 0.00 0.00 0.00 84 1014.9
20260901090510 13 0.0 1.6 0.00 0.00 0.00 84 1014.8
20260901090030 13 0.0 0.0 0.00 0.00 0.00 84 1014.9
20260901085504 13 0.0 1.6 0.00 0.00 0.00 84 1014.8
20260901085030 13 0.0 1.6 0.00 0.00 0.00 84 1014.9
20260901084529 13 0.0 1.6 0.00 0.00 0.00 84 1014.9
20260901084005 13 0.0 1.6 0.00 0.00 0.00 84 1014.8
20260901083509 12 0.0 1.6 0.00 0.00 0.00 84 1014.7
20260901083005 12 0.0 1.6 0.00 0.00 0.00 84 1014.8
20260901082510 12 0.0 1.6 0.00 0.00 0.00 83 1014.8
20260901082010 12 0.0 1.6 0.00 0.00 0.00 83 1014.8
20260901081505 12 0.0 1.6 0.00 0.00 0.00 83 1014.9
20260901081005 13 0.0 1.6 0.00 0.00 0.00 83 1014.8
20260901080509 13 0.0 1.6 0.00 0.00 0.00 83 1014.9
20260901080010 13 0.0 1.6 0.00 0.00 0.00 83 1014.8
20260901075505 13 0.0 1.6 0.00 0.00 0.00 83 1014.7
20260901075004 13 0.0 1.6 0.00 0.00 0.00 83 1014.7
20260901074504 13 0.0 1.6 0.00 0.00 0.00 83 1014.8
20260901074024 13 0.0 1.6 0.00 0.00 0.00 83 1014.7
20260901073509 13 0.0 1.6 0.00 0.00 0.00 83 1014.7
20260901073010 13 0.0 1.6 0.00 0.00 0.00 83 1014.9
20260901072509 13 0.0 1.6 0.00 0.00 0.00 82 1014.8
20260901072009 13 0.0 1.6 0.00 0.00 0.00 82 1015.0
20260901071530 13 0.0 1.6 0.00 0.00 0.00 82 1014.9
20260901071005 13 0.0 1.6 0.00 0.00 0.00 82 1014.8
20260901070509 13 0.0 1.6 0.00 0.00 0.00 82 1014.8
20260901070006 13 0.0 1.6 0.00 0.00 0.00 82 1014.7
20260901065505 13 0.0 1.6 0.00 0.00 0.00 82 1014.6
20260901065009 13 0.0 1.6 0.00 0.00 0.00 81 1014.8
20260901064509 13 0.0 1.6 0.00 0.00 0.00 80 1014.8
20260901064009 13 0.0 1.6 0.00 0.00 0.00 79 1014.8